KD8TSA Weather Reports


time (UTC)temp
C
wind
direction
speed
KPH
gust
KPH
rain 1hr
cm
rain 24hr
cm
rain mn
cm
humidity
%
barometer
mb
20260508181007 20 241 1.6 3.2 0.00 0.00 0.00 51 1011.5
20260508180503 21 164 1.6 3.2 0.00 0.00 0.00 53 1011.5
20260508175959 20 136 0.0 0.0 0.00 0.00 0.00 54 1011.8
20260508175455 21 222 4.8 11.3 0.00 0.00 0.00 50 1011.7
20260508174953 21 242 4.8 9.7 0.00 0.00 0.00 53 1011.7
20260508174451 20 62 0.0 1.6 0.00 0.00 0.00 55 1011.8
20260508173947 20 120 3.2 3.2 0.00 0.00 0.00 54 1012.0
20260508173445 20 198 6.4 9.7 0.00 0.00 0.00 53 1012.0
20260508172940 20 286 6.4 9.7 0.00 0.00 0.00 52 1012.0
20260508172438 20 64 1.6 3.2 0.00 0.00 0.00 57 1012.2
20260508171934 20 266 3.2 4.8 0.00 0.00 0.00 54 1012.5
20260508171430 20 186 9.7 11.3 0.00 0.00 0.00 51 1012.4
20260508170927 20 195 4.8 8.0 0.00 0.00 0.00 53 1012.3
20260508170425 20 182 3.2 4.8 0.00 0.00 0.00 56 1012.4
20260508165921 20 278 4.8 4.8 0.00 0.00 0.00 57 1012.5
20260508165419 20 219 0.0 0.0 0.00 0.00 0.00 55 1012.6
20260508164915 20 86 3.2 8.0 0.00 0.00 0.00 55 1012.5
20260508164412 20 247 1.6 3.2 0.00 0.00 0.00 58 1012.7
20260508163909 20 356 3.2 4.8 0.00 0.00 0.00 56 1012.8
20260508163407 20 146 3.2 9.7 0.00 0.00 0.00 58 1012.8
20260508162902 19 258 3.2 3.2 0.00 0.00 0.00 56 1013.1
20260508162400 19 287 3.2 4.8 0.00 0.00 0.00 60 1013.1
20260508161857 19 83 4.8 8.0 0.00 0.00 0.00 55 1013.1
20260508161354 20 163 6.4 11.3 0.00 0.00 0.00 55 1012.9
20260508160851 19 102 4.8 8.0 0.00 0.00 0.00 54 1012.8
20260508160350 18 250 1.6 3.2 0.00 0.00 0.00 56 1013.2
20260508155845 18 42 8.0 9.7 0.00 0.00 0.00 54 1013.1
20260508155343 18 96 4.8 4.8 0.00 0.00 0.00 55 1013.4
20260508154840 18 170 3.2 3.2 0.00 0.00 0.00 59 1013.5
20260508154338 18 236 8.0 11.3 0.00 0.00 0.00 58 1013.3
20260508153834 18 148 1.6 1.6 0.00 0.00 0.00 57 1013.5
20260508153331 18 228 3.2 4.8 0.00 0.00 0.00 58 1013.5
20260508152827 17 124 3.2 4.8 0.00 0.00 0.00 57 1013.4
20260508152324 17 244 8.0 11.3 0.00 0.00 0.00 57 1013.7
20260508151820 17 141 0.0 1.6 0.00 0.00 0.00 58 1013.7
20260508151318 18 132 0.0 1.6 0.00 0.00 0.00 59 1013.8
20260508150813 17 274 3.2 3.2 0.00 0.00 0.00 59 1013.6
20260508150310 17 283 3.2 3.2 0.00 0.00 0.00 61 1013.8
20260508145807 17 41 3.2 4.8 0.00 0.00 0.00 58 1014.0
20260508145306 17 195 4.8 8.0 0.00 0.00 0.00 58 1013.8
20260508144800 17 269 0.0 3.2 0.00 0.00 0.00 61 1014.0
20260508144258 16 318 11.3 22.5 0.00 0.00 0.00 59 1013.8
20260508143755 16 123 0.0 0.0 0.00 0.00 0.00 62 1014.0
20260508143252 15 227 6.4 11.3 0.00 0.00 0.00 61 1014.0
20260508142748 15 248 3.2 8.0 0.00 0.00 0.00 63 1013.7
20260508142245 14 177 0.0 3.2 0.00 0.00 0.00 66 1013.9
20260508141742 13 159 4.8 8.0 0.00 0.00 0.00 64 1013.9
20260508141239 14 130 9.7 16.1 0.00 0.00 0.00 62 1013.9
20260508140736 13 252 3.2 4.8 0.00 0.00 0.00 64 1013.8
20260508140233 13 282 6.4 8.0 0.00 0.00 0.00 64 1013.8
20260508135729 13 186 4.8 8.0 0.00 0.00 0.00 63 1014.1
20260508135225 13 302 0.0 1.6 0.00 0.00 0.00 63 1014.1
20260508134721 13 286 1.6 3.2 0.00 0.00 0.00 63 1014.1
20260508134218 13 90 3.2 4.8 0.00 0.00 0.00 62 1014.0
20260508133715 15 169 0.0 1.6 0.00 0.00 0.00 62 1014.1
20260508133213 14 108 1.6 1.6 0.00 0.00 0.00 64 1014.0
20260508132711 13 229 3.2 3.2 0.00 0.00 0.00 64 1013.9
20260508132208 13 142 0.0 0.0 0.00 0.00 0.00 66 1014.1
20260508131703 12 167 0.0 1.6 0.00 0.00 0.00 65 1014.0
20260508131159 12 262 3.2 4.8 0.00 0.00 0.00 68 1014.0
20260508130656 11 186 4.8 4.8 0.00 0.00 0.00 67 1014.3
20260508130153 11 199 1.6 1.6 0.00 0.00 0.00 67 1014.0
20260508125649 12 113 1.6 1.6 0.00 0.00 0.00 65 1014.1
20260508125146 12 198 4.8 4.8 0.00 0.00 0.00 66 1014.1
20260508124644 12 118 4.8 8.0 0.00 0.00 0.00 65 1014.0
20260508124141 12 225 3.2 4.8 0.00 0.00 0.00 67 1014.3
20260508123639 12 168 1.6 1.6 0.00 0.00 0.00 69 1013.8
20260508123137 11 233 1.6 3.2 0.00 0.00 0.00 69 1014.0
20260508122632 11 279 1.6 3.2 0.00 0.00 0.00 70 1013.9
20260508122130 11 228 1.6 3.2 0.00 0.00 0.00 71 1014.1
20260508121628 11 203 3.2 4.8 0.00 0.00 0.00 71 1014.0
20260508121126 10 212 0.0 1.6 0.00 0.00 0.00 72 1014.0
20260508120623 10 157 1.6 1.6 0.00 0.00 0.00 73 1013.7
20260508120121 10 191 0.0 0.0 0.00 0.00 0.00 73 1013.9
20260508115618 10 181 1.6 1.6 0.00 0.00 0.00 73 1013.8
20260508115115 9 178 0.0 0.0 0.00 0.00 0.00 74 1013.8
20260508114612 9 219 0.0 1.6 0.00 0.00 0.00 73 1013.7
20260508114108 8 190 0.0 0.0 0.00 0.00 0.00 73 1013.8
20260508113605 8 174 0.0 0.0 0.00 0.00 0.00 74 1013.9
20260508113104 8 185 1.6 1.6 0.00 0.00 0.00 74 1013.8
20260508112559 8 169 0.0 0.0 0.00 0.00 0.00 75 1013.7
20260508112051 8 201 0.0 0.0 0.00 0.00 0.00 76 1013.8
20260508111548 8 181 0.0 1.6 0.00 0.00 0.00 75 1013.5
20260508111045 8 201 4.8 8.0 0.00 0.00 0.00 75 1013.4
20260508110543 8 208 1.6 1.6 0.00 0.00 0.00 76 1013.3
20260508110039 7 176 0.0 0.0 0.00 0.00 0.00 77 1013.4
20260508105539 7 175 0.0 1.6 0.00 0.00 0.00 77 1013.4
20260508105036 7 129 0.0 0.0 0.00 0.00 0.00 76 1013.4
20260508104534 7 247 3.2 4.8 0.00 0.00 0.00 76 1013.3
20260508104030 7 228 0.0 3.2 0.00 0.00 0.00 76 1013.4
20260508103527 7 159 0.0 0.0 0.00 0.00 0.00 76 1013.5
20260508103025 7 180 1.6 1.6 0.00 0.00 0.00 76 1013.3
20260508102522 7 149 1.6 1.6 0.00 0.00 0.00 76 1013.4
20260508102020 7 156 0.0 0.0 0.00 0.00 0.00 75 1013.3
20260508101517 7 176 0.0 1.6 0.00 0.00 0.00 75 1013.4
20260508101009 7 178 0.0 0.0 0.00 0.00 0.00 75 1013.2
20260508100507 7 165 0.0 0.0 0.00 0.00 0.00 75 1013.2
20260508100003 7 163 1.6 1.6 0.00 0.00 0.00 74 1013.4
20260508095501 7 165 0.0 0.0 0.00 0.00 0.00 74 1013.3
20260508094957 7 196 1.6 1.6 0.00 0.00 0.00 74 1013.3
20260508094454 7 188 0.0 1.6 0.00 0.00 0.00 74 1013.1
20260508093950 7 169 0.0 0.0 0.00 0.00 0.00 74 1013.3
20260508093448 7 188 0.0 0.0 0.00 0.00 0.00 73 1013.3
20260508092946 7 122 0.0 0.0 0.00 0.00 0.00 73 1013.4
20260508092443 7 167 0.0 1.6 0.00 0.00 0.00 73 1013.3
20260508091942 7 180 0.0 0.0 0.00 0.00 0.00 73 1013.3
20260508091438 7 192 3.2 3.2 0.00 0.00 0.00 74 1013.2
20260508090935 7 167 0.0 0.0 0.00 0.00 0.00 74 1013.2
20260508090434 7 182 0.0 1.6 0.00 0.00 0.00 74 1013.2
20260508085929 7 185 0.0 0.0 0.00 0.00 0.00 74 1013.2
20260508085426 7 150 0.0 0.0 0.00 0.00 0.00 73 1013.4
20260508084923 7 187 0.0 0.0 0.00 0.00 0.00 73 1013.2
20260508084420 7 175 0.0 0.0 0.00 0.00 0.00 73 1013.2
20260508083918 7 172 0.0 1.6 0.00 0.00 0.00 73 1013.2
20260508083415 7 164 0.0 0.0 0.00 0.00 0.00 73 1013.1
20260508082914 7 168 0.0 0.0 0.00 0.00 0.00 73 1013.4
20260508082412 7 157 0.0 0.0 0.00 0.00 0.00 73 1013.2
20260508081910 7 161 0.0 0.0 0.00 0.00 0.00 72 1013.3
20260508081406 7 172 1.6 3.2 0.00 0.00 0.00 72 1013.0
20260508080903 7 171 0.0 1.6 0.00 0.00 0.00 72 1013.2
20260508080401 7 138 0.0 0.0 0.00 0.00 0.00 71 1012.9
20260508075857 8 163 0.0 1.6 0.00 0.00 0.00 70 1013.2
20260508075354 8 169 1.6 3.2 0.00 0.00 0.00 70 1013.1
20260508074852 8 181 0.0 1.6 0.00 0.00 0.00 69 1013.1
20260508074349 8 176 0.0 0.0 0.00 0.00 0.00 69 1013.0
20260508073846 8 173 0.0 0.0 0.00 0.00 0.00 69 1013.1
20260508073344 8 160 0.0 0.0 0.00 0.00 0.00 69 1013.3
20260508072840 8 188 0.0 0.0 0.00 0.00 0.00 70 1013.1
20260508072337 8 180 0.0 0.0 0.00 0.00 0.00 70 1013.1
20260508071834 8 165 0.0 1.6 0.00 0.00 0.00 70 1013.3
20260508071332 8 158 0.0 1.6 0.00 0.00 0.00 70 1013.3
20260508070829 8 153 0.0 0.0 0.00 0.00 0.00 71 1013.3
20260508070328 8 158 0.0 1.6 0.00 0.00 0.00 71 1013.3
20260508065825 8 173 0.0 0.0 0.00 0.00 0.00 71 1013.4
20260508065323 8 157 0.0 1.6 0.00 0.00 0.00 71 1013.3
20260508064821 8 168 0.0 0.0 0.00 0.00 0.00 71 1013.3
20260508064318 8 230 1.6 1.6 0.00 0.00 0.00 71 1013.2
20260508063815 8 195 0.0 0.0 0.00 0.00 0.00 72 1013.5
20260508063313 7 189 0.0 1.6 0.00 0.00 0.00 72 1013.4
20260508062810 7 188 1.6 1.6 0.00 0.00 0.00 72 1013.5
20260508062308 7 167 0.0 0.0 0.00 0.00 0.00 72 1013.4
20260508061804 7 157 0.0 0.0 0.00 0.00 0.00 71 1013.6
20260508061301 7 174 0.0 0.0 0.00 0.00 0.00 72 1013.6
20260508060758 7 202 0.0 0.0 0.00 0.00 0.00 72 1013.6
20260508060256 7 162 0.0 0.0 0.00 0.00 0.00 72 1013.7
20260508055751 7 157 0.0 1.6 0.00 0.00 0.00 72 1013.4
20260508055248 7 197 0.0 1.6 0.00 0.00 0.00 72 1013.7
20260508054744 7 169 0.0 0.0 0.00 0.00 0.00 73 1013.6
20260508054243 7 152 0.0 0.0 0.00 0.00 0.00 73 1013.8
20260508053740 7 170 0.0 0.0 0.00 0.00 0.00 73 1013.5
20260508053237 7 188 0.0 0.0 0.00 0.00 0.00 73 1013.7
20260508052734 7 178 1.6 3.2 0.00 0.00 0.00 74 1013.4
20260508052231 7 181 0.0 0.0 0.00 0.00 0.00 74 1013.8
20260508051727 7 178 0.0 0.0 0.00 0.00 0.00 73 1013.6
20260508051223 7 186 0.0 0.0 0.00 0.00 0.00 73 1013.7
20260508050719 7 164 0.0 1.6 0.00 0.00 0.00 73 1013.8
20260508050217 7 189 0.0 0.0 0.00 0.00 0.00 73 1013.8
20260508045713 7 191 1.6 3.2 0.00 0.00 0.00 73 1013.6
20260508045211 7 189 0.0 0.0 0.00 0.00 0.00 73 1013.6
20260508044708 7 198 0.0 0.0 0.00 0.00 0.00 73 1013.5
20260508044204 7 176 0.0 0.0 0.00 0.00 0.00 73 1013.8
20260508043700 7 186 0.0 0.0 0.00 0.00 0.00 73 1013.6
20260508043159 7 196 0.0 0.0 0.00 0.00 0.00 73 1013.9
20260508042654 7 186 0.0 0.0 0.00 0.00 0.00 73 1013.7
20260508042152 7 177 0.0 0.0 0.00 0.00 0.00 73 1013.7
20260508041648 7 171 0.0 0.0 0.00 0.00 0.00 73 1013.6
20260508041145 7 200 0.0 0.0 0.00 0.00 0.00 73 1013.8
20260508040641 7 174 0.0 0.0 0.00 0.00 0.00 73 1013.8
20260508040139 7 180 0.0 0.0 0.00 0.00 0.00 74 1013.7
20260508035636 7 181 0.0 0.0 0.00 0.00 0.00 74 1013.8
20260508035134 7 179 0.0 0.0 0.00 0.00 0.00 74 1013.9
20260508034630 7 171 0.0 0.0 0.00 0.00 0.00 74 1013.7
20260508034127 7 174 0.0 0.0 0.00 0.00 0.00 74 1013.7
20260508033624 7 174 0.0 0.0 0.00 0.00 0.00 74 1013.6
20260508033123 7 175 1.6 1.6 0.00 0.00 0.00 74 1013.6
20260508032619 7 167 0.0 1.6 0.00 0.00 0.00 74 1013.5
20260508032117 7 175 0.0 0.0 0.00 0.00 0.00 74 1013.7
20260508031614 7 180 0.0 0.0 0.00 0.00 0.00 73 1013.6
20260508031110 7 187 1.6 1.6 0.00 0.00 0.00 73 1013.3
20260508030606 7 172 1.6 1.6 0.00 0.00 0.00 73 1013.6
20260508030104 8 177 0.0 1.6 0.00 0.00 0.00 72 1013.6
20260508025600 8 181 0.0 0.0 0.00 0.00 0.00 72 1013.8
20260508025057 8 162 0.0 1.6 0.00 0.00 0.00 71 1013.7
20260508024553 8 179 0.0 0.0 0.00 0.00 0.00 70 1013.7
20260508024050 8 176 0.0 0.0 0.00 0.00 0.00 70 1013.8
20260508023547 8 176 0.0 0.0 0.00 0.00 0.00 70 1013.8
20260508023044 8 175 0.0 0.0 0.00 0.00 0.00 70 1013.7
20260508022540 8 177 0.0 0.0 0.00 0.00 0.00 70 1013.7
20260508022037 8 177 0.0 0.0 0.00 0.00 0.00 69 1013.8
20260508021532 8 181 0.0 0.0 0.00 0.00 0.00 70 1013.9
20260508021028 8 183 0.0 0.0 0.00 0.00 0.00 70 1014.0
20260508020527 9 175 0.0 1.6 0.00 0.00 0.00 68 1013.6
20260508020024 9 177 0.0 0.0 0.00 0.00 0.00 67 1013.6
20260508015521 9 182 0.0 0.0 0.00 0.00 0.00 65 1013.8
20260508015018 9 182 0.0 0.0 0.00 0.00 0.00 65 1013.6
20260508014515 9 181 0.0 0.0 0.00 0.00 0.00 64 1013.5
20260508014011 9 181 0.0 0.0 0.00 0.00 0.00 65 1013.5
20260508013507 9 179 0.0 0.0 0.00 0.00 0.00 64 1013.6
20260508013005 10 181 0.0 0.0 0.00 0.00 0.00 64 1013.5
20260508012501 10 182 0.0 0.0 0.00 0.00 0.00 63 1013.7
20260508011959 10 184 0.0 0.0 0.00 0.00 0.00 62 1013.6
20260508011457 10 182 0.0 0.0 0.00 0.00 0.00 61 1013.3
20260508010954 10 180 0.0 0.0 0.00 0.00 0.00 62 1013.3
20260508010451 10 181 0.0 0.0 0.00 0.00 0.00 62 1013.5
20260508005948 10 183 0.0 0.0 0.00 0.00 0.00 63 1013.4
20260508005444 10 180 0.0 0.0 0.00 0.00 0.00 63 1013.2
20260508004941 10 182 0.0 0.0 0.00 0.00 0.00 63 1013.4
20260508004437 10 178 0.0 0.0 0.00 0.00 0.00 62 1013.5
20260508003933 10 178 0.0 0.0 0.00 0.00 0.00 61 1013.1
20260508003430 11 178 0.0 0.0 0.00 0.00 0.00 60 1013.3
20260508002927 11 180 0.0 0.0 0.00 0.00 0.00 59 1013.3
20260508002424 11 177 0.0 0.0 0.00 0.00 0.00 58 1013.1
20260508001920 12 182 0.0 0.0 0.00 0.00 0.00 57 1013.3
20260508001418 12 194 0.0 1.6 0.00 0.00 0.00 56 1013.2
20260508000914 12 189 0.0 0.0 0.00 0.00 0.00 54 1013.0
20260508000412 12 214 1.6 1.6 0.00 0.00 0.00 52 1013.3
20260507235906 12 183 0.0 0.0 0.00 0.00 0.00 50 1012.8
20260507235403 12 208 1.6 1.6 0.00 0.00 0.00 50 1013.0
20260507234900 12 111 1.6 1.6 0.00 0.00 0.00 51 1012.8
20260507234359 13 159 3.2 3.2 0.00 0.00 0.00 51 1012.8
20260507233854 13 249 3.2 3.2 0.00 0.00 0.00 50 1012.7
20260507233351 13 235 1.6 1.6 0.00 0.00 0.00 48 1012.9
20260507232849 14 317 1.6 3.2 0.00 0.00 0.00 48 1012.7
20260507232345 14 233 3.2 3.2 0.00 0.00 0.00 47 1012.8
20260507231843 14 162 0.0 1.6 0.00 0.00 0.00 49 1012.8
20260507231339 13 308 4.8 4.8 0.00 0.00 0.00 49 1012.9
20260507230835 13 355 8.0 9.7 0.00 0.00 0.00 49 1012.9
20260507230328 15 96 4.8 8.0 0.00 0.00 0.00 47 1012.8
20260507225827 15 234 4.8 4.8 0.00 0.00 0.00 46 1012.9
20260507225324 14 106 6.4 11.3 0.00 0.00 0.00 48 1012.9
20260507224820 14 260 8.0 11.3 0.00 0.00 0.00 48 1012.9
20260507224317 14 59 4.8 9.7 0.00 0.00 0.00 49 1012.9
20260507223813 15 76 4.8 4.8 0.00 0.00 0.00 46 1012.8
20260507223309 15 180 3.2 4.8 0.00 0.00 0.00 48 1012.8
20260507222807 15 304 4.8 8.0 0.00 0.00 0.00 49 1013.1
20260507222306 15 328 6.4 8.0 0.00 0.00 0.00 47 1013.2
20260507221800 15 308 6.4 9.7 0.00 0.00 0.00 49 1013.1
20260507221256 15 306 6.4 9.7 0.00 0.00 0.00 49 1012.8
20260507220752 15 26 3.2 3.2 0.00 0.00 0.00 51 1012.9
20260507220251 14 333 6.4 8.0 0.00 0.00 0.00 50 1013.1
20260507215747 14 210 1.6 1.6 0.00 0.00 0.00 50 1012.9
20260507215244 14 316 4.8 8.0 0.00 0.00 0.00 50 1013.0
20260507214741 15 8 11.3 14.5 0.00 0.00 0.00 50 1013.1
20260507214238 14 51 3.2 4.8 0.00 0.00 0.00 51 1013.1
20260507213728 14 242 9.7 12.9 0.00 0.00 0.00 51 1012.8
20260507213225 14 318 4.8 8.0 0.00 0.00 0.00 51 1012.9
20260507212721 14 354 11.3 14.5 0.00 0.00 0.00 50 1013.0
20260507212218 14 260 11.3 14.5 0.00 0.00 0.00 50 1012.7
20260507211715 15 93 4.8 4.8 0.00 0.00 0.00 51 1012.8
20260507211210 15 331 9.7 12.9 0.00 0.00 0.00 49 1012.9
20260507210708 14 329 4.8 4.8 0.00 0.00 0.00 53 1013.0
20260507210205 14 22 3.2 3.2 0.00 0.00 0.00 51 1012.7
20260507205701 14 338 9.7 11.3 0.00 0.00 0.00 51 1012.8
20260507205158 14 330 9.7 12.9 0.00 0.00 0.00 53 1012.8
20260507204654 14 277 6.4 8.0 0.00 0.00 0.00 51 1012.7
20260507204152 14 227 6.4 9.7 0.00 0.00 0.00 50 1012.5
20260507203650 13 354 4.8 4.8 0.00 0.00 0.00 54 1012.8
20260507203147 13 57 8.0 11.3 0.00 0.00 0.00 51 1012.6
20260507202642 15 254 4.8 4.8 0.00 0.00 0.00 52 1012.5
20260507202139 15 276 8.0 14.5 0.00 0.00 0.00 52 1012.6
20260507201634 15 358 11.3 16.1 0.00 0.00 0.00 52 1012.8
20260507201131 14 296 6.4 9.7 0.00 0.00 0.00 52 1012.6
20260507200627 14 337 4.8 8.0 0.00 0.00 0.00 51 1012.7
20260507200123 14 263 11.3 12.9 0.00 0.00 0.00 50 1012.8
20260507195620 14 359 11.3 14.5 0.00 0.00 0.00 51 1012.8
20260507195118 14 339 14.5 20.9 0.00 0.00 0.00 50 1012.9
20260507194614 14 336 11.3 16.1 0.00 0.00 0.00 50 1012.9
20260507194109 15 40 11.3 14.5 0.00 0.00 0.00 51 1012.9
20260507193607 15 2 4.8 4.8 0.00 0.00 0.00 55 1012.7
20260507193104 15 46 6.4 8.0 0.00 0.00 0.00 50 1013.1
20260507192600 15 337 6.4 8.0 0.00 0.00 0.00 52 1012.9
20260507192057 14 188 4.8 4.8 0.00 0.00 0.00 51 1012.9
20260507191552 14 275 6.4 9.7 0.00 0.00 0.00 52 1013.0
20260507191050 14 294 4.8 8.0 0.00 0.00 0.00 54 1012.8
20260507190547 15 344 6.4 11.3 0.00 0.00 0.00 53 1013.0
20260507190046 14 344 6.4 9.7 0.00 0.00 0.00 53 1012.9
20260507185544 15 162 6.4 8.0 0.00 0.00 0.00 53 1012.9
20260507185040 14 253 8.0 11.3 0.00 0.00 0.00 52 1013.1
20260507184538 14 204 3.2 4.8 0.00 0.00 0.00 57 1013.1
20260507184036 14 286 12.9 14.5 0.00 0.00 0.00 53 1012.9
20260507183531 14 351 4.8 8.0 0.00 0.00 0.00 57 1013.0
20260507183029 13 137 1.6 3.2 0.00 0.00 0.00 57 1013.0
20260507182525 13 132 1.6 3.2 0.00 0.00 0.00 59 1013.2
20260507182021 14 236 9.7 12.9 0.00 0.00 0.00 53 1013.1
20260507181518 14 244 3.2 4.8 0.00 0.00 0.00 57 1013.0